STARLINK-34580

Last updated on Mon Oct 20 2025 00:02:07 GMT+0000 (Coordinated Universal Time)

1 65808U 25218T 25292.26087720 .00052996 00000+0 96858-3 0 9996 2 65808 97.6026 152.8419 0001498 95.6060 264.5361 15.49217677 3646
UTC large
Height (km)
Speed (km/s)
/
Latitude / Longitude
Inclination (degrees)
Orbital Period (minutes)
Azimuth
Elevation
Range (km)
Doppler Factor

Next 0 passes for location: London (51.5072 / 0.1276)

Sorry there are no passes over London.